La Coruna Airport, Spain

4:10 PM CEST on April 27, 2017 (GMT +0200)
A Coruna

Weather History for LECO - November, 2012

Change the Weather History Date:

Saturday, November 24, 2012

  Actual Average Record
Temperature  
Mean Temperature 58 °F -  
Max Temperature 64 °F 56 °F 69 °F (2011)
Min Temperature 50 °F 44 °F 32 °F (1996)
Degree Days  
Heating Degree Days 6    
Growing Degree Days 8 (Base 50)    
Moisture  
Dew Point 50 °F    
Average Humidity 79    
Maximum Humidity 94    
Minimum Humidity 64    
Precipitation  
Precipitation 0.00 in - - ()
Sea Level Pressure  
Sea Level Pressure 29.87 in    
Wind  
Wind Speed 12 mph ()    
Max Wind Speed 29 mph    
Max Gust Speed 52 mph    
Visibility 6.0 miles    
Events Rain    
Averages and records for this station are not official NWS values.
T = Trace of Precipitation, MM = Missing Value Source: Averaged Metar Reports

Daily Weather History Graph

Daily Weather History Graph

Search for Another Location

Airport or City:

Trip Planner

Search our weather history database for the weather conditions in past years. The results will help you decide how hot, cold, wet, or windy it might be!

Date:

Astronomy

Nov. 24, 2012 Rise Set
Actual Time 8:38 AM CET 6:02 PM CET
Civil Twilight 8:06 AM CET 6:33 PM CET
Nautical Twilight 7:31 AM CET 7:08 PM CET
Astronomical Twilight 6:57 AM CET 7:42 PM CET
Moon 3:44 PM CET (11/24) 4:36 AM CET (11/24)
Length of Visible Light 10h 26m
Length of Day
9h 23m
Waxing Gibbous, 85% of the Moon is Illuminated
Nov 24
Waxing Gibbous
Nov 28
Full
Dec 6
Last Quarter
Dec 13
New
Dec 20
First Quarter

Hourly Weather History & Observations

Time (CET) Temp. Dew Point Humidity Pressure Visibility Wind Dir Wind Speed Gust Speed Precip Events Conditions
12:00 AM 59.0 °F 48.2 °F 67% 29.77 in 6.2 mi SSE 20.7 mph 39.1 mph N/A   Partly Cloudy
12:30 AM 59.0 °F 48.2 °F 67% 29.74 in 6.2 mi Variable 11.5 mph 24.2 mph N/A   Partly Cloudy
1:00 AM 59.0 °F 48.2 °F 67% 29.74 in 6.2 mi SSE 15.0 mph 33.4 mph N/A   Partly Cloudy
6:00 AM 57.2 °F 51.8 °F 82% 29.59 in 6.2 mi SE 9.2 mph 26.5 mph N/A   Scattered Clouds
6:30 AM 57.2 °F 51.8 °F 82% 29.59 in 6.2 mi SSE 13.8 mph 33.4 mph N/A   Mostly Cloudy
7:00 AM 59.0 °F 51.8 °F 77% 29.59 in 6.2 mi South 11.5 mph - N/A   Mostly Cloudy
7:30 AM 59.0 °F 51.8 °F 77% 29.56 in 6.2 mi South 19.6 mph 38.0 mph N/A   Mostly Cloudy
8:00 AM 60.8 °F 53.6 °F 77% 29.56 in 6.2 mi South 23.0 mph 47.2 mph N/A   Mostly Cloudy
8:30 AM 60.8 °F 53.6 °F 77% 29.56 in 6.2 mi South 24.2 mph 41.4 mph N/A   Mostly Cloudy
9:00 AM 60.8 °F 55.4 °F 82% 29.59 in 6.2 mi SSW 19.6 mph 42.6 mph N/A   Mostly Cloudy
9:30 AM 62.6 °F 53.6 °F 72% 29.59 in 6.2 mi SSW 28.8 mph 51.8 mph N/A   Mostly Cloudy
10:00 AM 62.6 °F 55.4 °F 77% 29.65 in 6.2 mi SSW 26.5 mph 51.8 mph N/A   Mostly Cloudy
10:30 AM 62.6 °F 55.4 °F 77% 29.68 in 6.2 mi SSW 23.0 mph 41.4 mph N/A   Scattered Clouds
11:00 AM 57.2 °F 53.6 °F 88% 29.77 in 3.1 mi West 20.7 mph 33.4 mph N/A   Mostly Cloudy
11:30 AM 55.4 °F 53.6 °F 94% 29.83 in 3.1 mi West 15.0 mph 26.5 mph N/A Rain Light Rain
12:00 PM 55.4 °F 51.8 °F 88% 29.86 in 6.2 mi WSW 15.0 mph - N/A   Mostly Cloudy
12:30 PM 57.2 °F 51.8 °F 82% 29.89 in 6.2 mi West 16.1 mph - N/A Rain Light Rain
1:00 PM 57.2 °F 51.8 °F 82% 29.89 in 6.2 mi West 13.8 mph - N/A   Mostly Cloudy
1:30 PM 57.2 °F 51.8 °F 82% 29.89 in 6.2 mi West 11.5 mph 23.0 mph N/A   Scattered Clouds
2:00 PM 57.2 °F 51.8 °F 82% 29.92 in 6.2 mi West 13.8 mph - N/A   Mostly Cloudy
3:00 PM 55.4 °F 51.8 °F 88% 29.95 in 6.2 mi WNW 11.5 mph - N/A   Mostly Cloudy
3:30 PM 55.4 °F 50.0 °F 82% 29.95 in 6.2 mi WNW 11.5 mph - N/A Rain Light Rain
4:00 PM 55.4 °F 50.0 °F 82% 29.98 in 6.2 mi West 4.6 mph - N/A Rain Light Rain
4:30 PM 55.4 °F 50.0 °F 82% 30.01 in 6.2 mi West 4.6 mph - N/A Rain Light Rain
5:00 PM 64.4 °F 51.8 °F 64% 30.01 in 6.2 mi West 4.6 mph - N/A   Mostly Cloudy
5:30 PM 55.4 °F 50.0 °F 82% 30.04 in 6.2 mi West 4.6 mph - N/A   Scattered Clouds
6:00 PM 55.4 °F 50.0 °F 82% 30.04 in 6.2 mi WSW 3.5 mph - N/A   Mostly Cloudy
6:30 PM 55.4 °F 48.2 °F 77% 30.04 in 6.2 mi WSW 4.6 mph - N/A   Mostly Cloudy
7:00 PM 53.6 °F 50.0 °F 88% 30.06 in 6.2 mi WSW 4.6 mph - N/A   Mostly Cloudy
7:30 PM 53.6 °F 50.0 °F 88% 30.06 in 6.2 mi WSW 5.8 mph - N/A   Mostly Cloudy
8:00 PM 55.4 °F 46.4 °F 72% 30.06 in 6.2 mi West 4.6 mph - N/A   Mostly Cloudy
8:30 PM 53.6 °F 46.4 °F 77% 30.09 in 6.2 mi WNW 3.5 mph - N/A   Scattered Clouds
9:00 PM 53.6 °F 48.2 °F 82% 30.09 in 6.2 mi West 3.5 mph - N/A   Scattered Clouds
9:30 PM 53.6 °F 46.4 °F 77% 30.12 in 6.2 mi West 3.5 mph - N/A   Scattered Clouds
10:00 PM 53.6 °F 46.4 °F 77% 30.12 in 6.2 mi WSW 6.9 mph - N/A   Mostly Cloudy
10:30 PM 53.6 °F 46.4 °F 77% 30.12 in 6.2 mi Variable 2.3 mph - N/A   Mostly Cloudy
11:00 PM 53.6 °F 44.6 °F 72% 30.12 in 6.2 mi Variable 1.2 mph - N/A   Scattered Clouds
11:30 PM 50.0 °F 46.4 °F 87% 30.12 in 6.2 mi Variable 2.3 mph - N/A   Scattered Clouds